Regional Weather Roundup
Issued by NWS State College, PA

Home | Current Version | Previous Version | Text Only | Print | Product List | Glossary On
Versions: 1 2 3 4 5 6 7 8 9 10 11 12 13 14 15 16 17 18 19 20 21 22 23 24 25 26 27 28 29 30 31 32 33 34 35 36 37 38 39 40 41 42 43 44 45 46 47 48 49 50
269
ASUS41 KCTP 051810
RWRCTP

REGIONAL WEATHER ROUNDUP
NATIONAL WEATHER SERVICE STATE COLLEGE PA
200 PM EDT THU MAY 05 2016

Note: "fair" indicates few or no clouds below 12,000 feet with no
significant weather and/or obstructions to visibility.

* = STATION THAT DOES NOT REPORT PRECIPITATION /E.G. RAIN...SNOW...ETC/
    THUNDER OR FOG.

PAZ002>004-007>009-013>016-020>023-029>032-051900-
WESTERN PENNSYLVANIA

CITY           SKY/WX    TMP DP  RH WIND       PRES   REMARKS
ERIE           CLOUDY    57  48  72 NE16G24   29.78F
MEADVILLE      PTSUNNY   57  46  66 N10       29.73F
FRANKLIN*      CLOUDY    57  45  62 NE14G21   29.73S
NEW CASTLE     CLOUDY    59  49  69 N8        29.73S
BEAVER COUNTY  CLOUDY    57  50  77 N8        29.72F
BUTLER*        PTSUNNY   57  45  62 N9        29.72S
PITTSBURGH INT PTSUNNY   62  46  55 N7        29.68F
PITTSBURGH     LGT RAIN  57  46  66 N10       29.68F
INDIANA*       PTSUNNY   57  52  82 E9        29.70F
LATROBE        LGT RAIN  55  54  94 N12       29.68F
WASHINGTON CO* NOT AVBL
$$

PAZ004>006-010>012-017>019-024>028-033>037-041-042-045-046-049>053-051900-
CENTRAL PENNSYLVANIA

CITY           SKY/WX    TMP DP  RH WIND       PRES   REMARKS
BRADFORD       CLOUDY    54  40  59 N12       29.73F
DUBOIS         CLOUDY   N/A N/A N/A NE14      29.68F
CLEARFIELD     CLOUDY    58  42  55 NE14      29.69S
JOHNSTOWN      PTSUNNY   56  42  59 NE13G18   29.66F
ALTOONA        CLOUDY    56  45  66 NE8       29.68F
STATE COLLEGE  CLOUDY    57  45  62 NE14      29.67F
WILLIAMSPORT   CLOUDY    58  41  53 N15       29.68F
SELINSGROVE    CLOUDY    55  44  66 N13       29.70S
FT INDIANTOWN  CLOUDY    56  46  68 NE5       29.67F
CAPITAL CITY   CLOUDY    58  43  57 NE6       29.67S
HARRISBURG     CLOUDY    55  45  68 NE3       29.67F
YORK           CLOUDY    53  46  77 NE5       29.67F
$$

PAZ038>040-043-044-047-048-054-055-060>062-067>071-051900-
EASTERN PENNSYLVANIA

CITY           SKY/WX    TMP DP  RH WIND       PRES   REMARKS
SCRANTON       CLOUDY    54  43  66 N7        29.68F
MOUNT POCONO   CLOUDY    50  42  74 N10       29.67F
ALLENTOWN      CLOUDY    57  45  64 NE8       29.67F
QUAKERTOWN*    CLOUDY    54  46  76 NE7       29.67F
READING        LGT RAIN  55  46  71 VRB5      29.66S
LANCASTER      CLOUDY    54  46  74 NE7       29.66F
COATESVILLE    CLOUDY    52  50  93 MISG      29.67S
POTTSTOWN      CLOUDY    53  45  74 NE12      29.67F
BLUE BELL      CLOUDY    52  45  76 CALM      29.65S
DOYLESTOWN     CLOUDY    53  45  74 VRB5      29.65F
WILLOW GROVE   NOT AVBL
NORTH PHILA    CLOUDY    56  46  69 NE15      29.67F
PHILADELPHIA   CLOUDY    55  44  66 NE13      29.66S
$$




USA.gov is the U.S. government's official web portal to all federal, state and local government web resources and services.